Location: Bu�n Treun
(12.1333°N, 108.3167°E)
Time: 12:51:23
(UTC+00:00)

SL-16 R/B - Pass Details

Date: 13 July 2020
Orbit: 842 x 846 km, 71.0° (Epoch: 06 August)

Event Time Altitude Azimuth Distance (km) Brightness Sun altitude
Rises 21:08:42 0° 354° (N) 3,395 5.6 -18.7°
Reaches altitude 10° 21:11:15 10° 1° (N) 2,459 5.0 -18.1°
Maximum altitude 21:16:37 45° 73° (ENE) 1,132 3.4 -17.0°
Drops below altitude 10° 21:22:00 10° 145° (SE) 2,457 4.7 -15.8°
Sets 21:24:32 0° 151° (SSE) 3,392 5.4 -15.3°
